Time,TemperatureF,DewpointF,PressureIn,WindDirection,WindDirectionDegrees,WindSpeedMPH,WindSpeedGustMPH,Humidity,HourlyPrecipIn,Conditions,Clouds,dailyrainin,SoftwareType,DateUTC
2013-02-20 00:00:00,35.4,-1.6,29.23,NE,52,3.1,5.8,20,0.00,,CLR,0.35,VWS V14.00,2013-02-20 05:00:00,
2013-02-20 00:05:00,35.2,-1.8,29.21,East,95,4.0,4.0,20,0.00,,CLR,0.00,VWS V14.00,2013-02-20 05:05:00,
2013-02-20 00:10:00,35.2,-1.8,29.21,North,353,2.7,5.4,20,0.00,,CLR,0.00,VWS V14.00,2013-02-20 05:10:00,
2013-02-20 00:15:00,35.1,-2.0,29.21,NNE,15,2.7,5.4,20,0.00,,CLR,0.00,VWS V14.00,2013-02-20 05:15:00,
2013-02-20 00:20:00,35.1,-2.0,29.23,SSE,148,2.7,5.4,20,0.00,,CLR,0.00,VWS V14.00,2013-02-20 05:20:00,
2013-02-20 00:25:00,35.1,-2.0,29.23,SE,126,2.7,2.7,20,0.00,,CLR,0.00,VWS V14.00,2013-02-20 05:25:00,
2013-02-20 00:30:00,34.9,-2.1,29.23,North,3,3.1,3.1,20,0.00,,CLR,0.00,VWS V14.00,2013-02-20 05:30:00,
2013-02-20 00:35:00,34.9,-2.1,29.23,NNE,24,3.6,3.6,20,0.00,,CLR,0.00,VWS V14.00,2013-02-20 05:35:00,
2013-02-20 00:40:00,34.7,-2.3,29.23,NNW,331,0.0,3.6,20,0.00,,CLR,0.00,VWS V14.00,2013-02-20 05:40:00,
2013-02-20 00:45:00,34.7,-2.3,29.23,NNE,22,3.1,5.8,20,0.00,,CLR,0.00,VWS V14.00,2013-02-20 05:45:00,
2013-02-20 00:50:00,34.5,-2.4,29.23,NW,318,0.0,5.8,20,0.00,,CLR,0.00,VWS V14.00,2013-02-20 05:50:00,
2013-02-20 00:55:00,34.3,-2.6,29.23,South,172,2.2,5.8,20,0.00,,CLR,0.00,VWS V14.00,2013-02-20 05:55:00,
2013-02-20 01:00:00,34.3,-2.6,29.23,NE,47,2.7,5.8,20,0.00,,CLR,0.00,VWS V14.00,2013-02-20 06:00:00,
2013-02-20 01:05:00,34.2,-2.7,29.23,East,93,2.7,2.7,20,0.00,,CLR,0.00,VWS V14.00,2013-02-20 06:05:00,
2013-02-20 01:10:00,34.0,-2.9,29.23,WNW,288,3.6,6.3,20,0.00,,CLR,0.00,VWS V14.00,2013-02-20 06:10:00,
2013-02-20 01:15:00,34.0,-2.9,29.23,NE,48,2.7,6.3,20,0.00,,CLR,0.00,VWS V14.00,2013-02-20 06:15:00,
2013-02-20 01:20:00,33.8,-3.0,29.23,NNE,33,0.0,6.3,20,0.00,,CLR,0.00,VWS V14.00,2013-02-20 06:20:00,
2013-02-20 01:25:00,33.8,-3.0,29.23,ENE,59,0.0,2.2,20,0.00,,CLR,0.00,VWS V14.00,2013-02-20 06:25:00,
2013-02-20 01:30:00,33.8,-3.0,29.23,NW,312,2.7,2.7,20,0.00,,CLR,0.00,VWS V14.00,2013-02-20 06:30:00,
2013-02-20 01:35:00,33.6,-3.2,29.23,ENE,78,0.0,2.7,20,0.00,,CLR,0.00,VWS V14.00,2013-02-20 06:35:00,
2013-02-20 01:40:00,33.6,-3.2,29.23,SSE,157,10.1,10.1,20,0.00,,CLR,0.00,VWS V14.00,2013-02-20 06:40:00,
2013-02-20 01:45:00,33.6,-3.2,29.23,ESE,115,0.0,10.1,20,0.00,,CLR,0.00,VWS V14.00,2013-02-20 06:45:00,
2013-02-20 01:50:00,33.3,-3.5,29.23,NW,313,2.7,10.1,20,0.00,,CLR,0.00,VWS V14.00,2013-02-20 06:50:00,
2013-02-20 01:55:00,33.3,-3.5,29.23,NNE,25,3.6,10.1,20,0.00,,CLR,0.00,VWS V14.00,2013-02-20 06:55:00,
2013-02-20 02:00:00,33.3,-3.5,29.23,NNW,334,3.6,10.1,20,0.00,,CLR,0.00,VWS V14.00,2013-02-20 07:00:00,
2013-02-20 02:05:00,33.1,-3.6,29.23,NW,314,0.0,4.0,20,0.00,,CLR,0.00,VWS V14.00,2013-02-20 07:05:00,
2013-02-20 02:10:00,33.1,-3.6,29.23,North,7,3.1,4.0,20,0.00,,CLR,0.00,VWS V14.00,2013-02-20 07:10:00,
2013-02-20 02:15:00,33.1,-3.6,29.23,SSE,147,2.7,4.0,20,0.00,,CLR,0.00,VWS V14.00,2013-02-20 07:15:00,
2013-02-20 02:20:00,32.9,-3.8,29.26,SSE,147,2.7,4.0,20,0.00,,CLR,0.00,VWS V14.00,2013-02-20 07:20:00,
2013-02-20 02:25:00,32.7,-3.9,29.26,NNE,28,2.2,3.1,20,0.00,,CLR,0.00,VWS V14.00,2013-02-20 07:25:00,
2013-02-20 02:30:00,32.7,-3.9,29.26,East,81,0.0,3.1,20,0.00,,CLR,0.00,VWS V14.00,2013-02-20 07:30:00,
2013-02-20 02:35:00,32.7,-3.9,29.26,ENE,78,0.0,3.1,20,0.00,,CLR,0.00,VWS V14.00,2013-02-20 07:35:00,
2013-02-20 02:40:00,32.4,-4.2,29.26,SE,136,0.0,5.4,20,0.00,,CLR,0.00,VWS V14.00,2013-02-20 07:40:00,
2013-02-20 02:45:00,32.2,-4.4,29.26,SE,136,0.0,0.0,20,0.00,,CLR,0.00,VWS V14.00,2013-02-20 07:45:00,
2013-02-20 02:50:00,32.2,-4.4,29.26,ENE,78,3.1,3.1,20,0.00,,CLR,0.00,VWS V14.00,2013-02-20 07:50:00,
2013-02-20 02:55:00,32.2,-4.4,29.26,SE,136,3.1,3.1,20,0.00,,CLR,0.00,VWS V14.00,2013-02-20 07:55:00,
2013-02-20 03:00:00,32.2,-4.4,29.26,NW,320,0.0,0.0,20,0.00,,CLR,0.00,VWS V14.00,2013-02-20 08:00:00,
2013-02-20 03:05:00,31.8,-4.7,29.26,SE,130,4.0,4.0,20,0.00,,FEW040,0.00,VWS V14.00,2013-02-20 08:05:00,
2013-02-20 03:10:00,31.6,-4.8,29.26,NE,51,3.1,4.0,20,0.00,,FEW040,0.00,VWS V14.00,2013-02-20 08:10:00,
2013-02-20 03:15:00,31.5,-5.0,29.26,SE,140,3.6,10.1,20,0.00,,FEW040,0.00,VWS V14.00,2013-02-20 08:15:00,
2013-02-20 03:20:00,31.3,-5.1,29.26,ENE,63,3.6,4.9,20,0.00,,FEW040,0.00,VWS V14.00,2013-02-20 08:20:00,
2013-02-20 03:25:00,31.3,-5.1,29.26,ESE,110,2.7,8.3,20,0.00,,FEW040,0.00,VWS V14.00,2013-02-20 08:25:00,
2013-02-20 03:30:00,30.9,-5.4,29.26,NNE,26,3.1,8.3,20,0.00,,FEW040,0.00,VWS V14.00,2013-02-20 08:30:00,
2013-02-20 03:35:00,30.7,-5.6,29.26,North,0,2.2,8.3,20,0.00,,FEW040,0.00,VWS V14.00,2013-02-20 08:35:00,
2013-02-20 03:40:00,30.6,-5.7,29.26,ENE,61,2.2,2.2,20,0.00,,FEW040,0.00,VWS V14.00,2013-02-20 08:40:00,
2013-02-20 03:45:00,30.6,-5.7,29.26,NE,41,4.0,4.0,20,0.00,,FEW040,0.00,VWS V14.00,2013-02-20 08:45:00,
2013-02-20 03:50:00,30.2,-6.0,29.26,NNE,28,3.6,4.0,20,0.00,,FEW040,0.00,VWS V14.00,2013-02-20 08:50:00,
2013-02-20 03:55:00,30.0,-6.2,29.26,ENE,65,3.1,4.0,20,0.00,,FEW040,0.00,VWS V14.00,2013-02-20 08:55:00,
2013-02-20 04:00:00,30.0,-6.2,29.26,East,81,3.1,4.0,20,0.00,,FEW040,0.00,VWS V14.00,2013-02-20 09:00:00,
2013-02-20 04:05:00,29.8,-6.3,29.26,North,0,2.7,4.0,20,0.00,,CLR,0.00,VWS V14.00,2013-02-20 09:05:00,
2013-02-20 04:10:00,29.8,-6.3,29.26,NE,47,2.7,4.0,20,0.00,,CLR,0.00,VWS V14.00,2013-02-20 09:10:00,
2013-02-20 04:16:00,29.8,-6.3,29.26,NW,306,3.6,4.0,20,0.00,,CLR,0.00,VWS V14.00,2013-02-20 09:16:00,
2013-02-20 04:21:00,29.8,-6.3,29.26,NNW,339,0.0,0.0,20,0.00,,CLR,0.00,VWS V14.00,2013-02-20 09:21:00,
2013-02-20 04:26:00,29.8,-6.3,29.26,East,82,2.2,2.2,20,0.00,,CLR,0.00,VWS V14.00,2013-02-20 09:26:00,
2013-02-20 04:31:00,29.8,-6.3,29.26,North,0,2.7,3.1,20,0.00,,CLR,0.00,VWS V14.00,2013-02-20 09:31:00,
2013-02-20 04:36:00,29.7,-6.5,29.26,ENE,57,2.7,3.1,20,0.00,,CLR,0.00,VWS V14.00,2013-02-20 09:36:00,
2013-02-20 04:41:00,29.5,-6.6,29.26,East,84,3.1,3.1,20,0.00,,CLR,0.00,VWS V14.00,2013-02-20 09:41:00,
2013-02-20 04:46:00,29.5,-6.6,29.26,WSW,242,5.8,5.8,20,0.00,,CLR,0.00,VWS V14.00,2013-02-20 09:46:00,
2013-02-20 04:51:00,29.3,-6.8,29.26,NW,326,0.0,5.8,20,0.00,,CLR,0.00,VWS V14.00,2013-02-20 09:51:00,
2013-02-20 04:56:00,29.3,-6.8,29.26,SE,128,6.3,6.3,20,0.00,,CLR,0.00,VWS V14.00,2013-02-20 09:56:00,
2013-02-20 05:01:00,28.9,-7.1,29.26,NW,326,2.7,2.7,20,0.00,,CLR,0.00,VWS V14.00,2013-02-20 10:01:00,
2013-02-20 05:06:00,28.8,-7.2,29.29,North,0,3.6,4.9,20,0.00,,CLR,0.00,VWS V14.00,2013-02-20 10:06:00,
2013-02-20 05:11:00,28.8,-7.2,29.29,ESE,106,2.7,4.9,20,0.00,,CLR,0.00,VWS V14.00,2013-02-20 10:11:00,
2013-02-20 05:16:00,28.9,-7.1,29.29,SE,125,2.7,4.9,20,0.00,,CLR,0.00,VWS V14.00,2013-02-20 10:16:00,
2013-02-20 05:21:00,28.9,-7.1,29.29,ENE,63,0.0,2.7,20,0.00,,CLR,0.00,VWS V14.00,2013-02-20 10:21:00,
2013-02-20 05:26:00,28.9,-7.1,29.29,North,353,2.7,2.7,20,0.00,,CLR,0.00,VWS V14.00,2013-02-20 10:26:00,
2013-02-20 05:31:00,28.9,-7.1,29.29,NW,320,0.0,2.7,20,0.00,,CLR,0.00,VWS V14.00,2013-02-20 10:31:00,
2013-02-20 05:36:00,28.8,-7.2,29.29,NNE,22,0.0,3.1,20,0.00,,CLR,0.00,VWS V14.00,2013-02-20 10:36:00,
2013-02-20 05:41:00,28.6,-7.4,29.29,ENE,62,2.7,2.7,20,0.00,,CLR,0.00,VWS V14.00,2013-02-20 10:41:00,
2013-02-20 05:46:00,28.6,-7.4,29.29,ENE,69,3.1,3.1,20,0.00,,CLR,0.00,VWS V14.00,2013-02-20 10:46:00,
2013-02-20 05:51:00,28.6,-7.4,29.29,East,85,0.0,3.1,20,0.00,,CLR,0.00,VWS V14.00,2013-02-20 10:51:00,
2013-02-20 05:56:00,28.4,-6.5,29.29,ENE,70,2.7,4.0,21,0.00,,CLR,0.00,VWS V14.00,2013-02-20 10:56:00,
2013-02-20 06:01:00,28.4,-6.5,29.29,NE,34,2.7,2.7,21,0.00,,CLR,0.00,VWS V14.00,2013-02-20 11:01:00,
2013-02-20 06:06:00,28.0,-6.8,29.29,West,280,0.0,3.1,21,0.00,,CLR,0.00,VWS V14.00,2013-02-20 11:06:00,
2013-02-20 06:11:00,28.0,-6.8,29.29,NW,323,0.0,3.1,21,0.00,,CLR,0.00,VWS V14.00,2013-02-20 11:11:00,
2013-02-20 06:16:00,27.9,-7.0,29.29,ENE,61,2.7,4.0,21,0.00,,CLR,0.00,VWS V14.00,2013-02-20 11:16:00,
2013-02-20 06:21:00,27.9,-7.0,29.29,SE,136,3.1,5.4,21,0.00,,CLR,0.00,VWS V14.00,2013-02-20 11:21:00,
2013-02-20 06:26:00,27.9,-7.0,29.29,WNW,285,3.1,5.4,21,0.00,,CLR,0.00,VWS V14.00,2013-02-20 11:26:00,